2019-087A (44838 NORAD) Tracking and Keplerian Element Data

This shows tracking and keplerian element data for the satellite.

Feedback or suggestion? Click here.




ElementValue
Catalog44838
Name2019-087A
Epoch Orbit1790
Epoch Day94.12890447
Epoch Year2020
RAAN251.3005
Inclination97.3871
Eccentricity0.0012213
Argument of Perigee205.7663
Mean Anonmoly268.032
Mean Motion15.21133442
Decay Rate1.377E-05
L11 44838U 19087A 20094.12890447 .00001377 00000-0 64863-4 0 9991
L22 44838 97.3871 251.3005 0012213 205.7663 268.0320 15.21133442 17902

Live tracking and technical data element details for 2019-087A (NORAD 44838). 2019-087A can be tracked NOW for your location showing map with azimuth and elevation plus other details from your city location.

Track the satellite on the map from your city or location and see movement details for azimuth, elevation, latitude, longitude, range, height, and movement on the map or in text.







IsCatalogInMostPopularTable: catalog: 44838, numindb: 34
Update: records affected: 1



GetName: 44838 2019-087A

Hit Count: updated at: Mon, 06 Apr 2020 14:02:53 GMT